1487761200.06,54844,10.88,72554.3,-2.29,-4.45,-4.33,0,*51
1487761201.26,54845,10.88,72544.0,-2.27,-4.41,-4.33,0,*5A
1487761202.46,54846,10.88,72542.5,-2.23,-4.33,-4.33,0,*58
1487761203.67,54847,10.88,72546.5,-2.27,-4.57,-4.57,0,*5D
1487761204.87,54848,10.94,72544.5,-2.27,-4.65,-4.57,0,*53
1487761206.08,54849,10.88,72542.3,-2.27,-4.57,-4.57,0,*53
1487761207.28,54850,10.88,72550.8,-2.27,-4.57,-4.53,0,*5F
1487761208.5,54851,10.88,72574.8,-2.27,-4.69,-4.65,0,*56
1487761209.7,54852,10.88,72572.5,-2.27,-4.65,-4.65,0,*59
1487761210.97,54853,10.88,72580.0,-2.29,-4.73,-4.69,0,*5D
1487761212.24,54854,10.88,72586.8,-2.29,-4.69,-4.69,0,*51
1487761213.44,54855,10.88,72584.3,-2.27,-4.33,-4.33,0,*5E
1487761214.64,54856,10.88,72592.3,-2.27,-4.33,-4.17,0,*5B
1487761215.83,54857,10.88,72596.0,-2.27,-4.45,-4.33,0,*5D
1487761217.03,54858,10.88,72596.3,-2.27,-4.17,-4.09,0,*5C
1487761218.25,54859,10.88,72592.5,-2.29,-4.45,-4.37,0,*59
1487761219.46,54860,10.88,72594.8,-2.27,-3.95,-3.91,0,*5C
1487761220.7,54861,10.88,72588.8,-2.27,-3.67,-3.63,0,*5D
1487761221.9,54862,10.88,72582.5,-2.27,-4.09,-4.05,0,*56
1487761223.14,54863,10.88,72584.5,-2.21,-3.75,-3.71,0,*59
1487761224.37,54864,10.88,72588.0,-2.23,-3.75,-3.67,0,*5B
1487761225.57,54865,10.88,72588.5,-2.23,-4.13,-4.13,0,*59
1487761226.8,54866,10.88,72584.0,-2.21,-4.17,-4.13,0,*5C
1487761227.99,54867,10.88,72578.5,-2.19,-4.17,-4.17,0,*52
1487761229.21,54868,10.88,72578.8,-2.21,-4.41,-4.41,0,*56
1487761230.46,54869,10.88,72580.8,-2.21,-4.17,-4.01,0,*50
1487761231.69,54870,10.88,72582.5,-2.21,-3.75,-3.75,0,*5F
1487761232.96,54871,10.88,72582.8,-2.21,-3.63,-3.59,0,*57
1487761234.22,54872,10.88,72586.8,-2.17,-3.67,-3.67,0,*58
1487761235.47,54873,10.88,72584.3,-2.17,-3.83,-3.71,0,*54
1487761236.72,54874,10.88,72582.3,-2.17,-4.01,-3.87,0,*57
1487761237.94,54875,10.88,72576.3,-2.15,-3.83,-3.71,0,*50
1487761239.2,54876,10.88,72580.0,-2.17,-3.71,-3.71,0,*5C
1487761240.42,54877,10.88,72576.3,-2.17,-3.95,-3.87,0,*5E
1487761241.65,54878,10.88,72574.3,-2.17,-4.33,-4.25,0,*55
1487761242.85,54879,10.88,72572.0,-2.15,-4.21,-4.13,0,*50
1487761244.07,54880,10.88,72570.8,-2.13,-4.09,-4.05,0,*5D
1487761245.28,54881,10.88,72566.8,-2.15,-3.95,-3.95,0,*56
1487761246.48,54882,10.88,72570.0,-2.15,-4.21,-4.17,0,*50
1487761247.68,54883,10.88,72570.5,-2.15,-3.95,-3.95,0,*54
1487761248.89,54884,10.88,72562.3,-2.15,-4.25,-4.13,0,*56
1487761250.12,54885,10.88,72556.5,-2.13,-3.91,-3.79,0,*52
1487761251.34,54886,10.88,72548.0,-2.13,-4.33,-4.21,0,*54
1487761252.56,54887,10.88,72562.5,-2.13,-4.05,-3.83,0,*5F
1487761253.79,54888,10.88,72570.3,-2.11,-3.79,-3.75,0,*57
1487761255.02,54889,10.88,72574.3,-2.13,-3.79,-3.75,0,*54
1487761256.24,54890,10.88,72574.8,-2.13,-4.17,-4.05,0,*53
1487761257.47,54891,10.88,72570.5,-2.13,-3.91,-3.75,0,*5B
1487761258.73,54892,10.88,72582.8,-2.13,-3.67,-3.63,0,*56
1487761259.96,54893,10.88,72592.0,-2.13,-4.21,-4.09,0,*59
1487761261.16,54894,10.88,72592.3,-2.09,-4.25,-4.13,0,*5A
1487761262.38,54895,10.88,72596.0,-2.11,-4.49,-4.37,0,*5E
1487761263.6,54896,10.88,72596.3,-2.11,-4.49,-4.41,0,*5C
1487761264.82,54897,10.88,72588.0,-2.11,-4.37,-4.29,0,*5A
1487761266.01,54898,10.88,72578.5,-2.15,-4.49,-4.49,0,*5E
1487761267.27,54899,10.88,72574.8,-2.13,-4.81,-4.73,0,*54
1487761268.54,54900,10.88,72568.8,-2.13,-4.93,-4.93,0,*58
1487761269.81,54901,10.88,72568.8,-2.13,-5.11,-5.19,0,*51
1487761271.06,54902,10.88,72578.8,-2.15,-5.11,-5.03,0,*5F
1487761272.28,54903,10.88,72574.0,-2.17,-4.57,-4.49,0,*50
1487761273.5,54904,10.88,72572.0,-2.17,-4.33,-4.37,0,*5C
1487761274.7,54905,10.88,72578.0,-2.15,-4.09,-4.09,0,*5B
1487761275.93,54906,10.88,72578.5,-2.15,-4.09,-4.01,0,*50
1487761277.15,54907,10.88,72568.8,-2.15,-3.83,-3.71,0,*54
1487761278.37,54908,10.88,72572.5,-2.13,-4.21,-4.17,0,*55
1487761279.63,54909,10.88,72576.3,-2.15,-5.23,-5.03,0,*55
1487761280.83,54910,10.88,72576.8,-2.15,-4.61,-4.61,0,*5F
1487761282.04,54911,10.88,72574.8,-2.15,-4.25,-4.25,0,*5E
1487761283.24,54912,10.88,72578.5,-2.15,-4.13,-4.09,0,*56
1487761284.43,54913,10.88,72580.0,-2.15,-4.13,-4.09,0,*57
1487761285.64,54914,10.88,72576.3,-2.15,-4.25,-4.25,0,*5B
1487761286.83,54915,10.88,72572.8,-2.15,-4.45,-4.37,0,*5F
1487761288.04,54916,10.88,72576.3,-2.13,-4.45,-4.45,0,*5F
1487761289.23,54917,10.88,72574.3,-2.15,-4.45,-4.33,0,*59
1487761290.45,54918,10.88,72568.3,-2.15,-4.89,-4.99,0,*56
1487761291.68,54919,10.88,72570.5,-2.15,-4.73,-4.61,0,*55
1487761292.87,54920,10.88,72566.3,-2.15,-4.49,-4.45,0,*50
1487761294.07,54921,10.88,72566.0,-2.15,-4.61,-4.57,0,*58
1487761295.27,54922,10.88,72552.8,-2.15,-4.61,-4.57,0,*5B
1487761296.53,54923,10.88,72556.0,-2.17,-4.85,-4.77,0,*50
1487761297.77,54924,10.88,72552.8,-2.17,-4.99,-4.85,0,*57
1487761299.04,54925,10.88,72558.8,-2.17,-4.89,-4.89,0,*5B
1487761300.28,54926,10.88,72562.8,-2.19,-4.89,-4.93,0,*5D
1487761301.48,54927,10.88,72572.8,-2.19,-4.41,-4.37,0,*56
1487761302.73,54928,10.88,72580.0,-2.17,-4.01,-3.87,0,*5F
1487761303.92,54929,10.88,72586.3,-2.19,-3.87,-3.75,0,*54
1487761305.17,54930,10.88,72588.5,-2.17,-4.01,-4.05,0,*5B
1487761306.43,54931,10.88,72590.0,-2.17,-4.01,-4.13,0,*5D
1487761307.67,54932,10.88,72590.8,-2.17,-4.73,-4.61,0,*5E
1487761308.87,54933,10.88,72584.8,-2.15,-4.33,-4.25,0,*59
1487761310.09,54934,10.88,72576.0,-2.17,-4.45,-4.37,0,*5E
1487761311.31,54935,10.88,72564.5,-2.17,-4.65,-4.61,0,*5E
1487761312.53,54936,10.88,72576.8,-2.17,-4.61,-4.61,0,*59
1487761313.75,54937,10.88,72594.5,-2.17,-4.37,-4.37,0,*58
1487761314.96,54938,10.88,72540.3,-2.17,-4.99,-4.99,0,*57
1487761316.21,54939,10.88,72532.0,-2.17,-5.55,-5.65,0,*55
1487761317.46,54940,10.88,72518.8,-2.19,-5.31,-5.27,0,*51
1487761318.71,54941,10.88,72536.5,-2.19,-5.31,-5.31,0,*57
1487761319.99,54942,10.88,72534.8,-2.21,-5.19,-5.19,0,*5F
1487761321.27,54943,10.88,72534.3,-2.21,-5.15,-5.07,0,*5D
1487761322.52,54944,10.88,72532.5,-2.23,-5.19,-5.19,0,*5B
1487761323.78,54945,10.88,72542.0,-2.27,-5.19,-5.07,0,*51
1487761325.03,54946,10.88,72538.8,-2.27,-5.19,-5.19,0,*5D
1487761326.23,54947,10.88,72522.8,-2.27,-4.99,-4.99,0,*5C
1487761327.51,54948,10.88,72526.8,-2.29,-5.27,-5.23,0,*59
1487761328.77,54949,10.88,72526.8,-2.29,-4.77,-4.77,0,*5C
1487761330.05,54950,10.88,72524.3,-2.29,-5.27,-5.23,0,*50
1487761331.27,54951,10.88,72516.5,-2.29,-5.39,-5.47,0,*5C
1487761332.55,54952,10.88,72520.3,-2.29,-5.61,-5.69,0,*5E
1487761333.8,54953,10.88,72544.8,-2.31,-5.77,-5.69,0,*51
1487761335.03,54954,10.88,72540.5,-2.33,-5.39,-5.39,0,*5B
1487761336.31,54955,10.88,72536.3,-2.33,-5.27,-5.15,0,*5B
1487761337.54,54956,10.88,72544.5,-2.33,-5.51,-5.51,0,*59
1487761338.78,54957,10.88,72560.3,-2.35,-4.93,-4.93,0,*5E
1487761340.05,54958,10.88,72572.8,-2.37,-4.85,-4.93,0,*54
1487761341.3,54959,10.88,72548.5,-2.35,-5.03,-4.93,0,*58
1487761342.5,54960,10.88,72526.0,-2.35,-4.57,-4.53,0,*5E
1487761343.73,54961,10.88,72526.8,-2.35,-4.73,-4.65,0,*5C
1487761344.98,54962,10.88,72536.3,-2.35,-4.89,-4.81,0,*50
1487761346.2,54963,10.94,72532.3,-2.37,-4.53,-4.45,0,*5C
1487761347.4,54964,10.88,72556.3,-2.35,-4.61,-4.49,0,*54
1487761348.66,54965,10.88,72568.0,-2.37,-4.77,-4.77,0,*5D
1487761349.91,54966,10.88,72578.5,-2.35,-4.73,-4.73,0,*5C
1487761351.15,54967,10.88,72560.5,-2.35,-4.81,-4.77,0,*54
1487761352.4,54968,10.88,72550.3,-2.35,-4.73,-4.73,0,*52
1487761353.67,54969,10.88,72528.5,-2.37,-4.81,-4.73,0,*5C
1487761354.89,54970,10.88,72520.8,-2.35,-4.73,-4.61,0,*58
1487761356.09,54971,10.88,72522.0,-2.35,-4.61,-4.41,0,*58
1487761357.29,54972,10.94,72520.3,-2.35,-4.29,-4.29,0,*59
1487761358.49,54973,10.88,72506.5,-2.35,-4.37,-4.37,0,*58
1487761359.7,54974,10.88,72512.3,-2.35,-4.33,-4.29,0,*54
1487761360.93,54975,10.88,72524.0,-2.35,-4.01,-4.05,0,*5A
1487761362.12,54976,10.88,72530.5,-2.35,-4.37,-4.29,0,*52
1487761363.35,54977,10.88,72536.8,-2.33,-4.61,-4.53,0,*5B
1487761364.58,54978,10.88,72532.5,-2.33,-4.41,-4.37,0,*54
1487761365.8,54979,10.88,72536.3,-2.33,-4.37,-4.25,0,*57
1487761367.05,54980,10.88,72550.0,-2.33,-4.05,-4.01,0,*56
1487761368.26,54981,10.88,72548.0,-2.31,-3.95,-3.83,0,*56
1487761369.49,54982,10.88,72570.8,-2.31,-4.01,-3.95,0,*58
1487761370.73,54983,10.88,72568.8,-2.31,-4.01,-3.91,0,*5D
1487761371.93,54984,10.88,72572.5,-2.31,-4.57,-4.45,0,*57
1487761373.15,54985,10.88,72572.8,-2.29,-4.49,-4.57,0,*53
1487761374.42,54986,10.88,72580.8,-2.29,-4.69,-4.69,0,*5F
1487761375.66,54987,10.88,72574.8,-2.31,-4.77,-4.73,0,*53
1487761376.92,54988,10.94,72576.5,-2.31,-5.11,-5.11,0,*58
1487761378.14,54989,10.88,72588.5,-2.33,-4.65,-4.53,0,*5E
1487761379.34,54990,10.88,72570.8,-2.31,-4.61,-4.49,0,*5B
1487761380.57,54991,10.88,72550.8,-2.33,-4.49,-4.37,0,*5B
1487761381.77,54992,10.88,72558.8,-2.31,-4.61,-4.61,0,*53
1487761383.02,54993,10.88,72558.3,-2.31,-4.73,-4.69,0,*59
1487761384.29,54994,10.88,72538.5,-2.33,-4.77,-4.77,0,*57
1487761385.58,54995,10.88,72542.0,-2.33,-5.15,-5.07,0,*55
1487761386.86,54996,10.88,72524.5,-2.33,-5.07,-5.03,0,*51
1487761388.11,54997,10.88,72534.3,-2.35,-5.19,-5.19,0,*52
1487761389.36,54998,10.94,72544.5,-2.35,-4.73,-4.77,0,*59
1487761390.6,54999,10.94,72532.5,-2.35,-4.73,-4.73,0,*5C
1487761391.8,55000,10.94,72532.3,-2.35,-4.53,-4.37,0,*56
1487761393.0,55001,10.88,72544.8,-2.35,-4.49,-4.41,0,*5D
1487761394.2,55002,10.88,72556.3,-2.35,-4.17,-4.05,0,*55
1487761395.4,55003,10.88,72554.0,-2.35,-3.95,-3.87,0,*54
1487761396.63,55004,10.88,72554.5,-2.33,-3.95,-3.87,0,*55
1487761397.86,55005,10.94,72582.0,-2.33,-3.95,-3.95,0,*57
1487761399.07,55006,10.88,72590.3,-2.31,-3.91,-3.83,0,*55
1487761400.27,55007,10.88,72584.3,-2.31,-4.49,-4.49,0,*57
1487761401.48,55008,10.94,72578.5,-2.31,-4.21,-4.13,0,*59
1487761402.69,55009,10.88,72572.3,-2.31,-4.25,-4.21,0,*5D
1487761403.89,55010,10.88,72552.0,-2.31,-4.45,-4.37,0,*54
1487761405.1,55011,10.88,72552.0,-2.29,-4.49,-4.49,0,*59
1487761406.32,55012,10.94,72540.8,-2.31,-4.33,-4.21,0,*50
1487761407.55,55013,10.88,72544.8,-2.29,-4.57,-4.57,0,*5B
1487761408.77,55014,10.88,72544.8,-2.29,-4.49,-4.57,0,*53
1487761410.01,55015,10.88,72546.3,-2.31,-4.77,-4.77,0,*54
1487761411.24,55016,10.88,72562.0,-2.33,-4.61,-4.61,0,*55
1487761412.44,55017,10.94,72562.0,-2.31,-4.61,-4.61,0,*56
1487761413.67,55018,10.88,72560.3,-2.33,-4.37,-4.37,0,*5B
1487761414.86,55019,10.88,72548.0,-2.31,-4.37,-4.33,0,*5C
1487761416.1,55020,10.88,72546.5,-2.29,-4.33,-4.21,0,*58
1487761417.29,55021,10.88,72550.8,-2.31,-4.37,-4.33,0,*57
1487761418.52,55022,10.88,72562.8,-2.33,-4.37,-4.25,0,*51
1487761419.71,55023,10.88,72560.5,-2.31,-4.45,-4.45,0,*51
1487761420.95,55024,10.88,72560.0,-2.31,-4.77,-4.77,0,*56
1487761422.24,55025,10.88,72554.0,-2.33,-5.07,-5.03,0,*51
1487761423.46,55026,10.88,72560.3,-2.33,-4.53,-4.53,0,*56
1487761424.67,55027,10.88,72558.5,-2.31,-4.57,-4.61,0,*50
1487761425.96,55028,10.88,72546.5,-2.33,-5.07,-5.07,0,*58
1487761427.24,55029,10.88,72542.5,-2.33,-5.03,-5.03,0,*59
1487761428.49,55030,10.88,72546.0,-2.35,-4.93,-4.89,0,*5C
1487761429.74,55031,10.88,72532.8,-2.35,-5.03,-5.03,0,*56
1487761431.01,55032,10.88,72550.5,-2.35,-5.15,-5.07,0,*56
1487761432.28,55033,10.88,72568.3,-2.37,-5.19,-5.11,0,*5E
1487761433.53,55034,10.88,72576.5,-2.37,-5.11,-4.99,0,*50
1487761434.78,55035,10.88,72568.8,-2.37,-5.07,-4.99,0,*56
1487761436.04,55036,10.88,72538.0,-2.37,-4.99,-5.07,0,*55
1487761437.32,55037,10.94,72548.8,-2.37,-5.19,-5.11,0,*5A
1487761438.56,55038,10.88,72530.5,-2.39,-4.85,-4.85,0,*53
1487761439.8,55039,10.88,72532.3,-2.39,-5.39,-5.27,0,*5D
1487761441.01,55040,10.94,72546.3,-2.41,-4.99,-4.99,0,*53
1487761442.28,55041,10.88,72560.3,-2.41,-4.81,-4.73,0,*5F
1487761443.55,55042,10.88,72570.5,-2.41,-4.81,-4.73,0,*5C
1487761444.8,55043,10.94,72576.8,-2.41,-4.99,-4.85,0,*5D
1487761446.06,55044,10.88,72572.8,-2.41,-4.85,-4.85,0,*57
1487761447.28,55045,10.88,72568.8,-2.41,-4.49,-4.49,0,*56
1487761448.55,55046,10.94,72568.8,-2.41,-4.89,-4.73,0,*50
1487761449.82,55047,10.88,72562.5,-2.41,-4.85,-4.81,0,*50
1487761451.1,55048,10.94,72574.3,-2.41,-5.27,-5.15,0,*5A
1487761452.38,55049,10.88,72550.5,-2.41,-5.27,-5.23,0,*5E
1487761453.65,55050,10.94,72544.5,-2.41,-5.11,-5.11,0,*52
1487761454.85,55051,10.88,72540.8,-2.43,-5.39,-5.39,0,*51
1487761456.04,55052,10.94,72548.5,-2.45,-5.43,-5.43,0,*54
1487761457.25,55053,10.88,72550.5,-2.45,-5.55,-5.51,0,*51
1487761458.46,55054,10.88,72540.5,-2.45,-5.55,-5.55,0,*52
1487761459.71,55055,10.88,72532.0,-2.49,-5.69,-5.61,0,*57
1487761460.98,55056,10.88,72536.8,-2.51,-5.81,-5.69,0,*53
1487761462.2,55057,10.88,72528.3,-2.51,-5.55,-5.47,0,*57
1487761463.48,55058,10.88,72532.0,-2.51,-5.31,-5.19,0,*51
1487761464.75,55059,10.94,72540.5,-2.51,-5.11,-5.11,0,*5A
1487761466.03,55060,10.94,72542.8,-2.51,-5.31,-5.31,0,*50
1487761467.22,55061,10.88,72546.0,-2.53,-5.39,-5.39,0,*53
1487761468.46,55062,10.88,72554.8,-2.53,-4.93,-4.85,0,*57
1487761469.7,55063,10.88,72548.5,-2.55,-4.69,-4.61,0,*5F
1487761470.91,55064,10.88,72540.0,-2.53,-4.57,-4.57,0,*56
1487761472.09,55065,10.94,72542.5,-2.53,-4.45,-4.45,0,*57
1487761473.31,55066,10.94,72548.0,-2.51,-4.65,-4.57,0,*57
1487761474.56,55067,10.88,72544.0,-2.51,-4.65,-4.69,0,*5B
1487761475.82,55068,10.88,72540.0,-2.51,-4.81,-4.81,0,*58
1487761477.05,55069,10.88,72560.8,-2.51,-4.29,-4.41,0,*57
1487761478.31,55070,10.88,72570.0,-2.51,-4.69,-4.69,0,*51
1487761479.56,55071,10.88,72564.0,-2.51,-4.57,-4.77,0,*52
1487761480.8,55072,10.88,72570.0,-2.51,-4.65,-4.69,0,*5F
1487761482.06,55073,10.88,72576.8,-2.51,-4.81,-4.93,0,*51
1487761483.31,55074,10.88,72576.0,-2.51,-4.99,-5.07,0,*53
1487761484.59,55075,10.88,72568.0,-2.51,-5.07,-5.19,0,*5B
1487761485.86,55076,10.94,72564.3,-2.51,-5.11,-5.19,0,*5F
1487761487.07,55077,10.94,72560.8,-2.49,-5.19,-4.99,0,*56
1487761488.32,55078,10.94,72540.3,-2.49,-5.07,-4.89,0,*57
1487761489.56,55079,10.94,72528.5,-2.51,-4.99,-4.81,0,*51
1487761490.83,55080,10.94,72530.5,-2.51,-4.89,-4.69,0,*50
1487761492.1,55081,10.94,72534.5,-2.51,-4.89,-4.77,0,*5E
1487761493.34,55082,10.94,72514.0,-2.51,-4.69,-4.57,0,*51
1487761494.58,55083,10.88,72524.0,-2.49,-4.81,-4.69,0,*52
1487761495.82,55084,10.88,72534.8,-2.49,-4.89,-4.81,0,*5B
1487761497.07,55085,10.94,72572.8,-2.49,-5.19,-5.07,0,*5D
1487761498.35,55086,10.88,72554.3,-2.51,-5.11,-5.07,0,*5F
1487761499.61,55087,10.94,72548.5,-2.51,-4.89,-4.77,0,*58
1487761500.84,55088,10.88,72548.3,-2.51,-4.65,-4.53,0,*53
1487761502.08,55089,10.94,72562.0,-2.51,-4.81,-4.65,0,*5D
1487761503.3,55090,10.88,72550.3,-2.49,-5.07,-4.65,0,*53
1487761504.55,55091,10.94,72544.5,-2.49,-5.31,-4.77,0,*54
1487761505.74,55092,10.94,72528.5,-2.49,-4.99,-4.53,0,*52
1487761506.98,55093,10.88,72528.8,-2.49,-5.11,-4.69,0,*5B
1487761508.19,55094,10.94,72546.5,-2.45,-4.93,-4.61,0,*53
1487761509.44,55095,10.94,72560.0,-2.49,-5.19,-4.81,0,*53
1487761510.7,55096,10.88,72560.0,-2.51,-4.93,-4.81,0,*5A
1487761511.91,55097,10.94,72562.5,-2.49,-4.69,-4.45,0,*5F
1487761513.15,55098,10.94,72558.0,-2.51,-4.69,-4.53,0,*5E
1487761514.39,55099,10.88,72552.5,-2.49,-4.81,-4.77,0,*56
1487761515.6,55100,10.94,72552.3,-2.49,-4.69,-4.65,0,*52
1487761516.81,55101,10.88,72552.3,-2.51,-4.45,-4.41,0,*52
1487761518.01,55102,10.94,72552.3,-2.49,-4.21,-4.17,0,*59
1487761519.21,55103,10.88,72548.8,-2.49,-4.33,-4.21,0,*5E
1487761520.4,55104,10.94,72558.8,-2.49,-4.33,-4.29,0,*51
1487761521.6,55105,10.88,72564.3,-2.49,-4.21,-4.33,0,*58
1487761522.8,55106,10.94,72570.5,-2.45,-4.25,-4.17,0,*55
1487761524.05,55107,10.94,72566.0,-2.43,-4.01,-4.01,0,*53
1487761525.26,55108,10.88,72556.8,-2.43,-4.29,-4.25,0,*50
1487761526.45,55109,10.88,72566.3,-2.45,-4.53,-4.49,0,*50
1487761527.65,55110,10.94,72566.0,-2.43,-4.29,-4.25,0,*59
1487761528.91,55111,10.88,72566.5,-2.43,-4.01,-4.01,0,*54
1487761530.13,55112,10.88,72566.8,-2.41,-4.05,-3.95,0,*5B
1487761531.34,55113,10.88,72570.0,-2.39,-3.83,-3.83,0,*5B
1487761532.57,55114,10.88,72562.3,-2.41,-3.95,-3.91,0,*57
1487761533.78,55115,10.88,72566.3,-2.39,-3.95,-3.91,0,*59
1487761535.0,55116,10.94,72560.8,-2.41,-4.13,-4.09,0,*5A
1487761536.22,55117,10.94,72556.3,-2.39,-4.25,-4.21,0,*5B
1487761537.42,55118,10.88,72556.3,-2.39,-4.05,-3.95,0,*5E
1487761538.63,55119,10.88,72556.0,-2.39,-3.95,-3.91,0,*55
1487761539.89,55120,10.94,72558.5,-2.37,-4.01,-3.91,0,*5B
1487761541.14,55121,10.88,72554.0,-2.37,-4.05,-4.01,0,*50
1487761542.34,55122,10.94,72554.5,-2.35,-4.17,-4.17,0,*55
1487761543.54,55123,10.94,72522.0,-2.35,-4.65,-4.65,0,*54
1487761544.76,55124,10.94,72536.5,-2.37,-4.53,-4.41,0,*52
1487761545.96,55125,10.88,72532.0,-2.35,-4.17,-4.29,0,*5F
1487761547.23,55126,10.94,72542.0,-2.37,-4.77,-4.77,0,*53
1487761548.46,55127,10.88,72558.8,-2.37,-4.53,-4.53,0,*52
1487761549.68,55128,10.94,72550.0,-2.37,-4.53,-4.41,0,*5E
1487761550.88,55129,10.88,72554.0,-2.35,-4.61,-4.61,0,*5E
1487761552.1,55130,10.94,72544.5,-2.37,-4.45,-4.29,0,*5E
1487761553.34,55131,10.88,72554.8,-2.37,-4.25,-4.21,0,*51
1487761554.57,55132,10.88,72562.0,-2.37,-4.29,-4.21,0,*5E
1487761555.84,55133,10.94,72552.5,-2.37,-4.85,-4.93,0,*50
1487761557.04,55134,10.88,72540.0,-2.35,-4.41,-4.41,0,*52
1487761558.27,55135,10.88,72540.3,-2.37,-4.33,-4.29,0,*5A
1487761559.47,55136,10.88,72544.8,-2.35,-4.05,-4.05,0,*50
1487761560.67,55137,10.94,72552.3,-2.35,-4.17,-4.17,0,*51
1487761561.87,55138,10.94,72552.3,-2.35,-4.25,-4.25,0,*5E
1487761563.07,55139,10.94,72558.3,-2.35,-4.13,-4.13,0,*5F
1487761564.28,55140,10.94,72556.3,-2.35,-4.29,-4.29,0,*51
1487761565.47,55141,10.88,72556.3,-2.35,-4.53,-4.49,0,*5B
1487761566.67,55142,10.88,72552.0,-2.35,-4.25,-4.17,0,*52
1487761567.93,55143,10.88,72554.0,-2.33,-4.01,-3.95,0,*5E
1487761569.15,55144,10.88,72554.3,-2.33,-4.37,-4.29,0,*5C
1487761570.37,55145,10.94,72566.0,-2.33,-4.05,-4.05,0,*52
1487761571.63,55146,10.88,72562.8,-2.33,-4.01,-3.87,0,*58
1487761572.86,55147,10.88,72566.0,-2.33,-3.95,-3.87,0,*53
1487761574.06,55148,10.88,72566.3,-2.31,-4.17,-4.13,0,*59
1487761575.29,55149,10.94,72566.3,-2.33,-4.25,-4.13,0,*5B
1487761576.49,55150,10.94,72568.3,-2.31,-4.13,-4.09,0,*5F
1487761577.7,55151,10.94,72572.8,-2.31,-4.49,-4.37,0,*5C
1487761578.92,55152,10.88,72574.0,-2.33,-4.41,-4.37,0,*55
1487761580.15,55153,10.94,72580.3,-2.33,-4.65,-4.61,0,*51
1487761581.37,55154,10.88,72576.8,-2.33,-4.61,-4.49,0,*58
1487761582.6,55155,10.88,72580.8,-2.33,-4.53,-4.53,0,*53
1487761583.83,55156,10.88,72568.5,-2.33,-4.65,-4.53,0,*55
1487761585.11,55157,10.94,72560.5,-2.33,-5.03,-5.03,0,*51
1487761586.38,55158,10.88,72558.0,-2.33,-4.93,-4.89,0,*55
1487761587.65,55159,10.88,72560.3,-2.33,-4.81,-4.77,0,*56
1487761588.93,55160,10.88,72558.3,-2.33,-4.93,-5.03,0,*5D
1487761590.19,55161,10.94,72566.3,-2.37,-4.77,-4.77,0,*50
1487761591.42,55162,10.88,72558.0,-2.37,-4.65,-4.65,0,*53
1487761592.67,55163,10.88,72550.0,-2.37,-4.69,-4.65,0,*5E
1487761593.89,55164,10.94,72540.5,-2.37,-4.53,-4.45,0,*52
1487761595.11,55165,10.94,72544.3,-2.35,-4.73,-4.65,0,*51
1487761596.34,55166,10.88,72534.3,-2.35,-5.35,-5.31,0,*51
1487761597.63,55167,10.88,72536.3,-2.37,-5.31,-5.23,0,*55
1487761598.85,55168,10.88,72530.5,-2.41,-5.35,-5.35,0,*58
1487761600.07,55169,10.88,72544.0,-2.41,-5.35,-5.35,0,*59
1487761601.32,55170,10.94,72554.8,-2.41,-5.03,-4.99,0,*53
1487761602.57,55171,10.94,72554.0,-2.39,-4.85,-4.85,0,*5F
1487761603.85,55172,10.88,72540.0,-2.41,-4.89,-4.89,0,*53
1487761605.1,55173,10.88,72542.0,-2.43,-5.19,-5.07,0,*5F
1487761606.35,55174,10.88,72548.8,-2.43,-4.89,-4.89,0,*57
1487761607.58,55175,10.88,72540.0,-2.45,-5.39,-5.31,0,*58
1487761608.83,55176,10.88,72528.8,-2.45,-5.15,-5.15,0,*53
1487761610.09,55177,10.88,72530.0,-2.45,-5.31,-5.27,0,*55
1487761611.34,55178,10.88,72532.5,-2.45,-5.19,-5.19,0,*5D
1487761612.59,55179,10.88,72526.5,-2.45,-5.03,-4.93,0,*54
1487761613.82,55180,10.94,72536.0,-2.49,-4.77,-4.77,0,*56
1487761615.07,55181,10.88,72532.8,-2.49,-5.23,-5.19,0,*5E
1487761616.29,55182,10.94,72524.8,-2.49,-5.07,-4.99,0,*52
1487761617.54,55183,10.88,72508.5,-2.45,-5.15,-5.03,0,*5E
1487761618.79,55184,10.88,72520.5,-2.49,-5.19,-5.11,0,*5A
1487761620.03,55185,10.94,72516.3,-2.51,-5.07,-4.99,0,*5C
1487761621.26,55186,10.94,72496.3,-2.51,-5.55,-5.55,0,*59
1487761622.48,55187,10.88,72508.8,-2.51,-5.97,-5.97,0,*58
1487761623.76,55188,10.88,72534.0,-2.51,-5.11,-5.07,0,*50
1487761625.03,55189,10.88,72532.0,-2.55,-5.23,-5.15,0,*57
1487761626.28,55190,10.88,72516.0,-2.53,-5.11,-5.15,0,*58
1487761627.55,55191,10.94,72522.5,-2.55,-5.11,-5.11,0,*5B
1487761628.79,55192,10.94,72520.5,-2.53,-4.93,-4.93,0,*5E
1487761630.06,55193,10.94,72524.8,-2.55,-5.11,-5.03,0,*5A
1487761631.34,55194,10.88,72548.5,-2.55,-5.03,-5.03,0,*5E
1487761632.62,55195,10.94,72552.5,-2.55,-5.15,-5.11,0,*5B
1487761633.88,55196,10.94,72536.8,-2.55,-4.85,-4.85,0,*5C
1487761635.12,55197,10.88,72522.3,-2.55,-4.99,-4.93,0,*57
1487761636.34,55198,10.88,72522.8,-2.55,-4.37,-4.25,0,*51
1487761637.58,55199,10.94,72532.5,-2.55,-4.73,-4.61,0,*50
1487761638.79,55200,10.94,72536.3,-2.53,-4.57,-4.57,0,*56
1487761639.98,55201,10.94,72540.8,-2.53,-4.17,-4.09,0,*58
1487761641.2,55202,10.88,72540.0,-2.55,-4.37,-4.33,0,*56
1487761642.42,55203,10.94,72546.0,-2.55,-4.21,-4.09,0,*59
1487761643.63,55204,10.88,72548.8,-2.53,-4.25,-4.21,0,*56
1487761644.85,55205,10.88,72556.0,-2.51,-4.17,-4.13,0,*55
1487761646.12,55206,10.94,72568.5,-2.51,-4.01,-4.01,0,*52
1487761647.34,55207,10.94,72568.3,-2.51,-4.33,-4.33,0,*53
1487761648.56,55208,10.94,72562.3,-2.51,-4.53,-4.45,0,*5B
1487761649.83,55209,10.88,72552.3,-2.51,-4.89,-4.81,0,*55
1487761651.09,55210,10.88,72574.3,-2.51,-4.69,-4.69,0,*55
1487761652.36,55211,10.88,72566.0,-2.51,-4.89,-4.81,0,*5C
1487761653.63,55212,10.94,72574.3,-2.51,-4.89,-4.89,0,*57
1487761654.9,55213,10.88,72568.3,-2.51,-4.77,-4.69,0,*59
1487761656.17,55214,10.94,72576.8,-2.51,-4.89,-4.89,0,*51
1487761657.42,55215,10.88,72556.5,-2.53,-5.15,-5.11,0,*56
1487761658.67,55216,10.94,72550.8,-2.53,-5.11,-5.11,0,*51
1487761659.91,55217,10.88,72546.8,-2.53,-5.11,-5.03,0,*53
1487761661.16,55218,10.88,72546.5,-2.53,-5.11,-5.03,0,*5C
1487761662.43,55219,10.88,72544.5,-2.55,-5.11,-5.11,0,*58
1487761663.7,55220,10.88,72552.5,-2.55,-4.73,-4.69,0,*59
1487761664.92,55221,10.88,72550.5,-2.55,-3.95,-3.83,0,*54
1487761666.15,55222,10.88,72542.8,-2.51,-3.87,-3.75,0,*59
1487761667.41,55223,10.88,72556.0,-2.51,-3.67,-3.67,0,*55
1487761668.66,55224,10.88,72556.3,-2.49,-4.01,-4.01,0,*5B
1487761669.89,55225,10.94,72560.8,-2.51,-3.91,-3.91,0,*53
1487761671.12,55226,10.88,72554.8,-2.51,-3.75,-3.75,0,*50
1487761672.34,55227,10.94,72552.0,-2.49,-4.01,-3.87,0,*51
1487761673.58,55228,10.88,72556.3,-2.45,-3.51,-3.47,0,*5C
1487761674.82,55229,10.88,72554.0,-2.45,-3.63,-3.63,0,*5A
1487761676.07,55230,10.88,72564.8,-2.43,-3.63,-3.51,0,*55
1487761677.3,55231,10.88,72580.8,-2.41,-3.83,-3.79,0,*52
1487761678.52,55232,10.88,72580.8,-2.41,-4.09,-4.05,0,*58
1487761679.75,55233,10.94,72568.8,-2.41,-4.05,-4.05,0,*55
1487761681.01,55234,10.88,72554.0,-2.41,-4.69,-4.69,0,*52
1487761682.26,55235,10.88,72546.0,-2.39,-4.81,-4.69,0,*5A
1487761683.53,55236,10.88,72538.3,-2.41,-4.73,-4.73,0,*50
1487761684.8,55237,10.88,72586.5,-2.41,-4.85,-4.89,0,*5D
1487761686.01,55238,10.94,72550.0,-2.39,-4.57,-4.57,0,*51
1487761687.28,55239,10.94,72536.8,-2.41,-4.81,-4.81,0,*5F
1487761688.5,55240,10.88,72538.5,-2.41,-4.61,-4.49,0,*5B
1487761689.73,55241,10.88,72536.0,-2.41,-4.61,-4.49,0,*5A
1487761690.99,55242,10.88,72516.8,-2.41,-4.81,-4.73,0,*5E
1487761692.22,55243,10.88,72544.0,-2.41,-4.49,-4.37,0,*5B
1487761693.44,55244,10.88,72538.3,-2.41,-4.25,-4.13,0,*50
1487761694.65,55245,10.88,72544.8,-2.39,-4.33,-4.13,0,*59
1487761695.85,55246,10.88,72542.8,-2.39,-4.49,-4.45,0,*54
1487761697.12,55247,10.94,72542.8,-2.41,-4.81,-4.81,0,*56
1487761698.33,55248,10.88,72552.8,-2.41,-4.45,-4.25,0,*5F
1487761699.56,55249,10.88,72576.3,-2.41,-4.37,-4.25,0,*5B
1487761700.76,55250,10.88,72572.8,-2.39,-4.09,-4.05,0,*53
1487761701.98,55251,10.94,72548.3,-2.41,-4.13,-4.05,0,*56
1487761703.18,55252,10.94,72546.0,-2.39,-4.09,-4.05,0,*51
1487761704.39,55253,10.88,72554.0,-2.39,-4.13,-4.09,0,*57
1487761705.63,55254,10.94,72556.0,-2.37,-4.21,-4.21,0,*55
1487761706.89,55255,10.88,72548.3,-2.37,-4.01,-3.91,0,*5A
1487761708.09,55256,10.88,72546.5,-2.35,-3.87,-3.79,0,*54
1487761709.33,55257,10.94,72558.3,-2.37,-3.91,-3.91,0,*56